EHI
0 0 0 0 0 0 0 0 0 0 0 0 0 0 0 0 0 0 0 1 3 6 9 11 11 10 7 5 5 6 7 8 8 6 5 5 6 9 8 5 3 4 5 6
0 0 0 0 0 0 0 0 0 0 0 0 0 0 0 0 0 0 1 2 4 6 8 10 10 9 7 5 5 7 7 7 6 5 4 4 5 8 8 5 4 4 5 6
0 0 0 0 0 0 0 0 0 0 0 0 0 0 0 0 0 1 2 2 3 5 6 7 7 6 5 4 5 6 6 4 3 3 3 3 5 7 6 5 5 5 6 6
0 0 0 0 0 0 0 0 0 0 0 0 0 0 0 0 0 1 1 1 1 3 4 5 5 5 5 5 6 7 6 3 1 1 1 3 5 5 5 5 6 6 6 6
0 0 0 0 0 0 0 0 0 0 0 1 1 0 0 0 0 0 0 0 1 3 5 7 8 8 8 7 8 8 5 2 0 0 1 2 4 5 5 6 6 6 5 5
0 0 0 0 0 0 0 0 0 0 1 2 2 1 0 0 0 0 0 0 2 4 7 9 10 10 11 10 9 7 4 1 0 1 1 2 3 5 6 6 5 4 4 4
0 0 0 0 0 0 0 0 0 0 1 2 2 1 0 0 1 1 1 2 4 6 9 9 9 10 11 11 9 5 3 1 1 2 2 3 4 6 6 6 5 4 3 3
0 0 0 0 0 0 0 0 0 0 0 1 1 0 0 1 1 2 3 4 5 7 9 9 9 9 10 10 7 3 1 2 3 3 3 4 5 6 6 6 5 4 3 3
0 0 0 0 0 0 0 0 0 0 0 0 0 0 1 2 2 2 2 3 5 7 8 9 9 9 10 8 5 2 1 3 3 4 4 5 6 6 6 6 6 5 4 4
0 0 0 0 0 0 0 0 0 1 0 0 0 1 2 3 3 3 2 2 4 5 7 8 9 9 8 7 4 3 3 4 4 5 6 6 6 6 6 6 6 6 5 4
0 0 0 0 0 0 0 0 0 0 0 1 1 2 3 3 4 4 4 3 3 4 5 7 8 8 6 4 3 4 4 5 6 6 6 6 6 6 6 6 6 5 4 4
0 0 0 0 0 0 0 0 0 0 0 1 2 3 3 3 3 4 4 3 3 5 6 6 7 6 4 2 2 4 5 6 6 6 6 6 5 4 4 4 3 3 3 2
0 0 0 0 0 0 0 0 0 0 0 0 1 2 3 3 3 3 3 3 4 4 5 4 4 4 3 1 1 2 3 4 4 5 4 4 4 3 3 3 2 1 1 1
0 0 0 0 0 0 0 0 0 0 0 0 0 1 2 3 3 3 3 3 3 3 2 1 1 1 1 0 0 1 1 1 1 2 1 1 2 2 2 2 2 2 1 0
0 0 0 0 0 0 0 0 0 0 0 0 0 0 1 1 2 2 3 3 3 3 2 1 0 0 0 0 0 0 0 0 0 0 0 0 1 1 1 1 1 2 1 1
0 0 0 0 0 0 0 0 0 0 0 0 0 0 0 0 1 1 2 3 3 3 2 1 0 0 0 0 0 0 0 0 0 0 0 0 0 0 0 0 0 1 1 0
0 0 0 0 0 0 0 0 0 0 0 0 0 0 0 0 0 1 2 3 3 3 2 1 0 0 0 0 0 0 0 0 0 0 0 0 0 0 0 0 0 0 0 0
1 0 0 0 0 0 0 0 0 0 0 1 1 0 0 0 0 1 1 2 2 2 1 0 0 0 0 0 0 0 0 0 0 0 0 0 0 0 0 0 0 0 0 0
1 0 0 0 0 0 0 0 0 0 1 2 1 0 0 0 0 0 0 1 1 1 0 0 0 0 0 0 0 0 0 0 0 0 0 0 0 0 0 0 0 0 0 0
1 0 0 0 0 0 0 0 0 0 1 1 1 0 0 0 0 0 0 0 0 0 0 0 0 0 0 0 0 0 0 0 0 0 0 0 0 0 0 0 0 0 0 0
0 0 0 0 0 0 0 0 0 0 0 0 0 0 0 0 0 0 0 0 0 0 0 0 0 0 0 0 0 0 0 0 0 0 0 0 0 0 0 0 0 0 0 0
0 0 0 0 0 0 0 0 0 0 0 0 0 0 0 0 0 0 0 0 0 0 0 0 0 0 0 0 0 0 0 0 0 0 0 0 0 0 0 0 0 0 0 0
0 0 0 0 0 0 0 0 0 0 0 0 0 0 0 0 0 0 0 0 0 0 0 0 0 0 0 0 0 0 0 0 0 0 0 0 0 0 0 0 0 0 0 0
0 0 0 0 0 0 0 0 0 0 0 0 0 0 0 0 0 0 0 0 0 0 0 0 0 0 0 0 0 0 0 0 0 0 0 0 0 0 0 0 0 0 0 0
0 0 0 0 0 0 0 0 0 0 0 0 0 0 0 0 0 0 0 0 0 0 0 0 0 0 0 0 0 0 0 0 0 0 0 0 0 0 0 0 0 0 0 0
0 0 0 0 0 0 0 0 0 0 0 0 0 0 0 0 0 0 0 0 0 0 0 0 0 0 0 0 0 0 0 0 0 0 0 0 0 0 0 0 0 0 0 0
0 0 0 0 0 0 0 0 0 0 0 0 0 0 0 0 0 0 0 0 0 0 0 0 0 0 0 0 0 0 0 0 0 0 0 0 0 0 0 0 0 0 0 0
Wind_Speed
2 1 2 1 0 2 3 5 6 5 5 6 4 4 3 3 3 2 2 2 2 3 2 2 2 2 2 1 1 1 1 1 1 1 1 0 0 1 1 0 0 0 0 0
1 1 2 2 3 1 1 1 2 1 4 4 2 1 1 2 3 3 3 3 3 3 3 3 4 4 3 2 1 1 1 1 1 1 0 0 0 0 0 1 0 0 0 0
1 2 3 1 3 1 1 1 3 4 5 1 0 2 3 3 4 5 5 4 3 4 4 4 4 4 3 2 1 1 1 1 0 0 0 1 0 1 0 1 0 0 1 1
2 3 2 6 2 2 2 1 1 3 3 2 3 2 2 3 4 4 4 3 3 3 3 3 3 2 2 1 2 2 1 1 1 1 1 0 0 1 1 1 0 1 1 1
4 3 3 3 1 2 2 2 1 2 1 0 1 2 2 1 3 5 4 3 3 3 3 3 3 3 2 2 1 1 1 1 1 1 1 1 1 2 2 1 1 1 1 1
4 4 5 6 3 1 3 2 2 1 1 1 2 1 4 2 2 2 1 2 2 2 1 2 2 3 3 2 2 2 3 2 2 1 1 2 2 2 2 1 2 1 1 1
3 3 5 5 3 2 3 6 3 2 2 3 3 5 3 1 1 2 2 2 1 2 2 2 2 3 3 3 4 4 2 2 2 2 2 2 1 1 1 1 1 1 1 2
4 2 6 3 2 4 6 3 2 2 2 2 2 1 0 0 0 0 1 1 2 2 2 1 1 3 3 4 4 2 2 2 2 1 1 1 1 1 1 1 1 1 1 2
7 6 5 2 3 3 3 2 2 2 2 2 1 0 0 0 0 0 1 1 1 2 2 1 1 2 3 4 2 1 1 1 1 1 1 1 1 1 1 1 1 1 2 2
1 4 3 3 1 1 1 2 2 2 2 2 2 2 1 0 0 1 1 1 1 1 1 2 2 2 2 2 1 1 1 1 1 1 1 1 1 1 2 2 2 2 2 2
2 4 3 3 2 2 1 1 1 1 1 1 2 2 1 1 1 1 1 1 0 1 2 2 1 2 2 1 1 1 1 1 1 1 1 1 1 1 2 3 4 3 3 3
6 6 4 5 4 2 1 1 1 1 1 1 2 2 1 1 1 1 1 1 1 1 2 2 1 2 2 1 2 2 1 1 1 1 1 1 1 2 2 3 3 4 4 3
5 3 4 4 3 2 1 1 1 2 3 2 1 2 2 1 1 1 0 1 1 2 2 1 1 2 2 2 1 2 2 2 2 2 2 2 2 1 2 3 2 2 2 3
3 2 2 3 3 2 1 0 1 1 1 2 1 1 1 1 0 0 1 2 2 1 1 1 2 3 3 2 1 1 2 2 2 2 2 2 2 2 2 2 2 2 2 3
3 4 5 3 1 0 0 1 2 1 1 0 1 2 2 2 2 2 2 1 0 1 1 2 2 4 3 1 2 2 2 2 2 2 2 2 2 2 2 3 2 2 2 2
2 1 1 2 2 1 1 1 2 2 2 2 1 2 2 2 2 2 2 1 1 2 3 3 4 4 3 2 2 2 2 3 2 2 1 1 1 2 2 2 2 2 2 2
2 2 2 2 2 2 2 3 3 3 3 2 3 3 2 1 1 2 2 2 2 3 3 3 4 4 3 2 2 2 2 2 3 2 2 2 2 2 2 2 2 2 2 2
4 5 5 5 4 3 2 2 2 2 3 3 2 2 2 2 3 3 3 2 2 3 3 3 4 3 3 3 2 2 2 2 2 2 2 2 2 3 3 2 3 3 2 2
1 2 2 3 3 3 3 3 3 3 2 2 2 2 3 3 3 3 2 1 2 4 5 4 4 3 3 3 2 1 2 2 2 2 2 2 3 2 2 2 2 2 2 2
1 0 1 1 1 2 2 2 2 2 2 2 1 2 2 3 2 2 2 3 4 4 4 3 3 3 3 3 2 1 2 3 3 2 2 2 2 2 2 2 2 2 2 2
2 2 1 0 1 1 2 2 2 2 2 2 2 3 3 3 2 2 2 3 5 4 3 3 2 2 2 2 2 2 2 2 2 2 2 2 2 2 2 2 2 2 2 2
2 2 2 1 1 2 2 1 2 2 2 2 2 2 2 2 3 2 3 4 5 4 2 2 2 3 3 2 1 1 2 2 2 1 2 2 2 2 3 2 2 2 2 2
2 2 2 2 2 2 2 1 2 2 2 3 3 3 3 3 3 2 4 3 3 4 3 2 3 4 3 1 1 1 1 1 2 2 2 2 2 2 2 2 2 2 2 2
2 2 3 2 2 2 2 3 2 2 3 3 3 3 3 3 3 3 3 3 4 3 2 3 4 4 3 1 1 1 1 2 2 2 2 1 1 1 2 2 2 2 2 2
2 2 3 2 2 3 3 3 2 3 3 2 3 3 2 2 3 3 2 2 3 3 2 3 4 3 2 1 2 2 2 2 2 2 2 2 2 2 2 2 2 2 2 2
2 2 3 3 3 3 2 2 2 2 2 2 2 2 1 1 1 1 1 2 2 2 2 2 2 2 1 1 2 2 2 2 2 2 2 2 2 2 2 2 2 2 2 2
2 2 2 2 2 2 2 2 2 3 2 2 2 2 1 1 1 1 2 2 1 1 2 2 2 1 1 1 1 1 1 1 1 1 1 1 1 1 2 2 2 2 2 2
Wind_Direction
200 198 145 140 132 143 157 176 182 222 218 253 246 221 212 194 173 173 200 203 196 192 185 179 171 176 184 189 160 137 131 155 242 265 252 268 314 316 318 310 281 242 123 319
31 49 93 64 15 78 152 156 198 214 259 257 255 154 176 198 179 196 216 213 203 196 189 192 194 196 196 199 194 166 165 223 281 341 353 286 266 300 359 328 297 105 180 278
236 308 61 337 280 211 178 199 176 208 239 255 320 212 202 203 205 216 222 217 199 199 200 209 215 202 199 199 176 169 190 223 252 284 306 312 349 39 340 294 291 254 298 346
121 85 198 240 252 172 155 227 224 232 244 218 222 230 233 200 191 212 219 217 213 210 210 220 219 205 196 166 165 172 181 224 254 265 274 309 28 293 265 246 205 230 270 295
119 153 260 288 238 165 165 273 278 220 248 279 112 50 331 250 194 208 214 213 212 212 212 216 210 193 166 173 177 176 217 247 250 237 249 253 257 274 280 263 255 260 258 264
119 146 217 242 266 224 119 285 288 185 212 204 112 97 266 249 188 196 214 209 202 194 182 196 219 179 163 182 191 217 229 244 255 233 225 241 243 254 270 251 239 240 267 268
137 190 253 259 284 97 155 245 250 204 205 181 191 217 245 250 206 193 189 197 174 157 188 216 206 169 177 195 218 230 227 230 248 240 234 241 247 247 256 246 241 274 282 295
139 174 253 280 101 162 216 237 205 215 209 202 229 284 334 205 183 187 199 165 170 179 224 246 189 173 197 228 237 226 205 213 245 265 270 265 250 270 247 204 230 272 286 307
183 209 244 263 224 242 180 181 219 204 222 187 183 235 55 15 12 309 231 214 204 190 220 268 211 187 212 243 240 209 200 221 241 269 284 235 218 233 235 220 225 250 250 269
257 272 279 287 291 308 194 203 232 216 202 163 176 182 169 160 346 322 282 252 231 169 208 268 263 238 240 256 205 182 217 237 221 208 259 260 221 206 205 217 226 237 243 251
268 280 318 328 318 313 327 44 70 67 126 170 153 169 181 203 278 307 346 318 217 201 226 254 277 283 283 254 178 175 201 243 246 237 243 265 267 235 230 231 221 218 229 227
221 226 198 250 277 296 300 279 201 116 61 36 147 170 178 223 250 257 303 302 286 270 250 263 272 275 283 261 197 176 201 228 242 259 259 251 273 311 307 267 261 243 233 232
224 218 211 259 290 292 257 257 195 156 165 176 197 166 167 207 230 209 252 292 265 262 260 267 282 283 280 254 204 188 207 229 238 239 241 242 237 237 293 323 316 273 253 249
228 191 262 259 260 279 268 225 108 107 133 161 173 165 149 160 166 185 256 268 270 279 294 300 300 291 288 267 222 217 223 237 237 234 239 241 243 245 241 256 288 307 298 270
249 219 221 238 250 303 99 114 112 129 171 210 163 157 160 173 204 234 252 267 290 320 303 298 289 286 292 265 225 227 229 236 234 239 241 240 241 249 255 257 261 277 302 319
256 281 209 187 191 208 180 169 173 212 217 219 214 213 209 204 217 240 253 231 197 251 269 270 267 274 283 260 239 242 244 253 236 224 231 239 245 251 258 262 266 269 271 274
193 235 235 225 224 221 219 217 209 216 221 220 226 225 217 205 249 279 283 267 244 252 259 262 268 281 285 258 237 237 238 248 251 245 237 239 241 249 253 248 251 257 267 260
220 224 218 206 206 215 240 251 243 225 216 219 218 210 215 218 230 254 270 283 292 291 278 265 268 278 277 263 244 235 230 233 231 233 236 240 247 247 245 243 249 259 271 269
252 236 229 215 206 196 205 225 235 237 238 219 207 224 237 243 242 254 269 278 278 283 285 281 278 277 281 276 273 235 231 240 245 248 249 256 261 252 242 244 250 253 252 255
31 25 201 204 183 186 212 224 223 232 233 200 205 235 255 261 257 263 265 259 256 256 270 283 283 281 277 274 278 250 246 245 246 251 252 252 250 251 252 248 253 263 263 257
32 20 47 104 273 270 252 236 222 238 249 217 212 229 238 249 250 248 261 277 278 271 272 275 273 273 272 271 274 259 253 254 253 255 258 259 261 259 255 255 260 266 271 270
2 358 342 326 310 295 294 271 230 232 247 252 249 244 245 261 265 262 253 256 273 283 275 264 264 267 270 274 261 258 265 268 268 268 266 265 261 257 257 262 264 267 272 268
333 324 315 295 280 277 296 292 261 237 239 247 247 243 243 249 247 243 270 271 267 273 273 271 275 271 265 262 258 260 273 280 275 267 262 262 261 258 259 264 270 273 276 274
315 313 300 293 293 285 286 286 282 268 259 260 252 245 244 257 272 258 247 261 270 272 269 273 276 277 274 266 255 251 254 260 262 268 271 264 265 271 270 265 269 273 271 273
283 290 292 295 285 269 266 275 290 285 277 276 277 269 254 236 241 264 272 267 270 278 282 280 276 275 266 254 247 248 251 250 252 254 258 267 272 275 277 275 273 277 277 276
279 279 273 264 259 257 257 254 259 266 264 275 289 285 281 279 265 271 281 281 285 300 298 287 279 274 262 253 253 254 256 262 267 262 254 254 266 271 274 276 280 280 279 281
297 296 294 301 296 273 256 252 255 259 252 249 268 282 289 295 295 300 304 298 299 306 306 302 296 284 275 266 263 258 257 263 265 267 260 258 261 267 274 277 277 277 279 280